Location: La Fredeussais
(48.1780°N, 1.3980°W)
Time: 16:15:11
(UTC+00:00)

ATLAS 5 CENTAUR R/B - Pass Details

Date: 09 May 2021
Orbit: 516 x 1141 km, 63.3° (Epoch: 02 May)

Event Time Altitude Azimuth Distance (km) Brightness Sun altitude
Rises 21:16:28 0° 315° (NW) 3,253 7.2 -14.6°
Reaches altitude 10° 21:18:46 10° 310° (NW) 2,414 5.9 -14.8°
Maximum altitude 21:24:12 51° 237° (WSW) 1,151 2.9 -15.4°
Enters shadow 21:28:41 19° 169° (S) 2,163 3.8 -15.9°
